Regional Weather Roundup
Issued by NWS

Home | Current Version | Previous Version | Graphics & Text | Print | Product List | Glossary On
Versions: 1 2 3 4 5 6 7 8 9 10 11 12 13 14 15 16 17 18 19 20 21 22 23 24 25 26 27 28 29 30 31 32 33 34 35 36 37 38 39 40 41 42 43 44 45 46 47 48 49 50
000
ASUS43 KIND 271509
RWRIN

WEATHER ROUNDUP FOR INDIANA
NATIONAL WEATHER SERVICE INDIANAPOLIS IN
1100 AM EDT THU AUG 27 2015

NOTE: "FAIR" INDICATES FEW OR NO CLOUDS BELOW 12,000 FEET WITH NO
SIGNIFICANT WEATHER AND/OR OBSTRUCTIONS TO VISIBILITY.

* - STATION DOES NOT REPORT WEATHER SUCH AS PRECIPITATION OR FOG.

+ - STATION NOT QUALITY CONTROLLED BY THE NATIONAL WEATHER SERVICE.
    USE DATA WITH CAUTION...ESPECIALLY DEWPOINT AND RELATIVE
    HUMIDITY OBSERVATIONS.

INZ001>003-010>013-019-020-271600-
NORTHWEST INDIANA

CITY           SKY/WX    TMP DP  RH WIND       PRES   REMARKS
GARY /AIRPORT/ CLOUDY    66  52  59 CALM      30.21F
KNOX *+        CLOUDY    61  59  94 SE5       30.22F
LA PORTE +     CLOUDY    65  57  76 SE3       30.22F
MICHIGAN CITY+ CLOUDY    63  54  72 E3        30.22F
MONTICELLO +   MOSUNNY   64  56  77 NE7       30.21F
RENSSELAER +   SUNNY     66  57  72 E8        30.21F
VALPARAISO     MOSUNNY   65  56  72 SE6       30.22F

$$

LMZ046-743>745-271600-
SOUTHERN LAKE MICHIGAN

STATION/POSITION TIME  TEMP    WIND        PRES    WAVE
                       AIR SEA DIR/SP/G            HT
                 (UTC) (F)     (DEG/KT/KT) (MB)    (FT)
BURNS HARBOR     1400   63     190/  5/  5 1023.7F
MICHIGAN CITY    1400   62     140/  5/  6   N/A
5NW MICH CITY    1500   64 70  170/  8/ 10   N/A     1

$$

INZ004-005-014>016-021>024-271600-
NORTH CENTRAL INDIANA

CITY           SKY/WX    TMP DP  RH WIND       PRES   REMARKS
ELKHART        CLOUDY    63  55  77 CALM      30.23F
GOSHEN         PTSUNNY   64  55  72 N3        30.25R
LOGANSPORT +   MOSUNNY   64  50  59 NE3       30.23F
PERU/GRISSOM   PTSUNNY   65  57  76 NE7       30.21F
ROCHESTER +    MOSUNNY   68  55  64 NE7       30.23F
SOUTH BEND     CLOUDY    63  55  75 E6        30.23F
WARSAW +       PTSUNNY   61  55  82 N3        30.25R

$$

INZ006>009-017-018-025>027-271600-
NORTHEAST INDIANA

CITY           SKY/WX    TMP DP  RH WIND       PRES   REMARKS
ANGOLA *+      PTSUNNY   64  55  72 VRB3      30.24R
AUBURN +       MOSUNNY   64  55  72 CALM      30.25R
FORT WAYNE     PTSUNNY   66  56  70 CALM      30.24R
HUNTINGTON +   MOSUNNY   65  53  66 N3        30.23S

$$

INZ028-029-035-036-043>045-051>053-271600-
WEST CENTRAL INDIANA

CITY           SKY/WX    TMP DP  RH WIND       PRES   REMARKS
CRAWFORDSVL +  SUNNY     65  57  74 E3        30.21S
GREENCASTLE +  SUNNY     68  55  64 CALM      30.20F
LAFAYETTE      MOSUNNY   65  56  72 E7        30.21F
TERRE HAUTE    SUNNY     67  59  75 CALM      30.19F

$$

INZ030>032-037>040-046>048-054>057-064-065-271600-
CENTRAL INDIANA

CITY           SKY/WX    TMP DP  RH WIND       PRES   REMARKS
ANDERSON       PTSUNNY   66  55  68 CALM      30.24R
COLUMBUS       SUNNY     68  57  68 CALM      30.21R
FRANKFORT +    PTSUNNY   66  65  99 NE5       30.23F
GREENWOOD *+   SUNNY     70  55  60 CALM      30.21R
INDIANAPOLIS   MOSUNNY   69  56  62 CALM      30.19S
-EAGLE CREEK     N/A     69  58  67 CALM      30.20S
KOKOMO *+      PTSUNNY   66  55  68 NE6       30.24R
MARION +       CLOUDY    64  51  60 CALM      30.24R
MT COMFORT *+  MOSUNNY   70  55  60 CALM      30.22R
SHELBYVILLE    MOSUNNY   71  58  63 CALM      30.21R
ZIONSVILLE +   MOSUNNY   67  58  72 CALM      30.23S

$$

INZ033-034-041-042-049-050-058-059-271600-
EAST CENTRAL INDIANA

CITY           SKY/WX    TMP DP  RH WIND       PRES   REMARKS
MUNCIE         CLOUDY    64  58  80 CALM      30.23R

$$

INZ060-061-067>069-081>083-085>088-271600-
SOUTHWEST INDIANA

CITY           SKY/WX    TMP DP  RH WIND       PRES   REMARKS
EVANSVILLE     SUNNY     73  59  61 CALM      30.18S
HUNTINGBURG *+ SUNNY     72  57  60 SW5       30.19S
WASHINGTON +   SUNNY     71  59  67 CALM      30.18F

$$

INZ062-063-066-070>080-084-089>092-271600-
SOUTH CENTRAL AND SOUTHEAST INDIANA

CITY           SKY/WX    TMP DP  RH WIND       PRES   REMARKS
BLOOMINGTON    SUNNY     70  60  70 E3        30.19S
MADISON *+     SUNNY     72  54  53 CALM      30.22R
NORTH VERNON + SUNNY     72  57  60 CALM      30.21R
SEYMOUR +      SUNNY     73  57  56 CALM      30.21R

$$




USA.gov is the U.S. government's official web portal to all federal, state and local government web resources and services.